User: anonymous   Login
Location: Unspecified
(0.0000°N, 0.0000°E)
Time: 02:42:09
(UTC+01:00)
Language:

Meteor PRIRODA - Orbit

View from above orbital plane
View from above orbital plane
View from above satellite
View from above satellite

Ground track
Ground track

The orbit data is extracted from the following two-line orbital elements,

1 12585U 81065A   17345.92216617 +.00000600 +00000-0 +30406-4 0  9998
2 12585 097.4518 322.9179 0015799 134.3599 225.8933 15.20683826983468
Epoch (UTC): 11 December 2017 22:07:55
Eccentricity: 0.0015799
inclination: 97.4518°
perigee height: 493 km
apogee height: 514 km
right ascension of ascending node: 322.9179°
argument of perigee: 134.3599°
revolutions per day: 15.20683826
mean anomaly at epoch: 225.8933°
orbit number at epoch: 98346

The dashed part of the orbit path shows where the satellite is in the earth's shadow,  

DLR